{"data":{"norad_id":81667,"intl_designator":"","name":"UNKNOWN","alt_names":[],"object_type":"UNKNOWN","status":"UNKNOWN","operator":null,"country":null,"launch_date":null,"launch_site_code":null,"launch_vehicle":null,"mission":null,"orbit_class":"UNKNOWN","rcs_meters":null,"size_class":null,"mass_kg":null,"dimensions":null,"purposes":[],"wikipedia_slug":null,"has_3d_model":false,"image_url":null,"decayed_at":null,"tle_current":{"epoch":"2026-09-15T08:35:09.541248Z","epoch_age_seconds":459032,"freshness":"STALE","line1":"1 81667U          26258.35774932  .00001594  00000+0  42475-3 0  9994","line2":"2 81667  74.0362 238.2818 0012358 104.9267 255.3262 14.49255350496701","mean_motion":14.4925535,"eccentricity":0.0012358,"inclination_deg":74.0362,"raan_deg":238.2818,"arg_perigee_deg":104.9267,"mean_anomaly_deg":255.3262,"bstar":0.00042475,"rev_number":49670,"period_min":99.361372031506,"perigee_km":719.29979134978,"apogee_km":736.86352138086,"semimajor_km":7106.2186563653,"source":"CELESTRAK","updated_at":"2026-09-20T09:00:32.393431Z"}}}